2022/10/28 00:00:00, 0.0, 7.8
2022/10/28 00:10:00, 0.0, 7.5
2022/10/28 00:20:00, 0.0, 7.3
2022/10/28 00:30:00, 0.0, 7.1
2022/10/28 00:40:00, 0.0, 7.1
2022/10/28 00:50:00, 0.0, 7.2
2022/10/28 01:00:00, 0.0, 7.0
2022/10/28 01:10:00, 0.0, 7.3
2022/10/28 01:20:00, 0.0, 7.1
2022/10/28 01:30:00, 0.0, 7.3
2022/10/28 01:40:00, 0.0, 7.2
2022/10/28 01:50:00, 0.0, 7.4
2022/10/28 02:00:00, 0.0, 7.0
2022/10/28 02:10:00, 0.0, 7.4
2022/10/28 02:20:00, 0.0, 7.3
2022/10/28 02:30:00, 0.0, 6.8
2022/10/28 02:40:00, 0.0, 7.1
2022/10/28 02:50:00, 0.0, 7.1
2022/10/28 03:00:00, 0.0, 6.4
2022/10/28 03:10:00, 0.0, 6.6
2022/10/28 03:20:00, 0.0, 8.2
2022/10/28 03:30:00, 0.0, 7.1
2022/10/28 03:40:00, 0.0, 7.0
2022/10/28 03:50:00, 0.0, 7.0
2022/10/28 04:00:00, 0.0, 7.3
2022/10/28 04:10:00, 0.0, 6.7
2022/10/28 04:20:00, 0.0, 6.8
2022/10/28 04:30:00, 0.0, 7.3
2022/10/28 04:40:00, 0.0, 7.1
2022/10/28 04:50:00, 0.0, 7.7
2022/10/28 05:00:00, 0.0, 7.2
2022/10/28 05:10:00, 0.0, 6.9
2022/10/28 05:20:00, 0.0, 7.0
2022/10/28 05:30:00, 0.0, 6.7
2022/10/28 05:40:00, 0.0, 6.9
2022/10/28 05:50:00, 0.0, 6.6
2022/10/28 06:00:00, 0.0, 7.4
2022/10/28 06:10:00, 0.0, 6.8
2022/10/28 06:20:00, 0.0, 6.3
2022/10/28 06:30:00, 0.0, 6.5
2022/10/28 06:40:00, 0.0, 6.6
2022/10/28 06:50:00, 0.0, 6.9
2022/10/28 07:00:00, 0.0, 7.4
2022/10/28 07:10:00, 0.0, 7.1
2022/10/28 07:20:00, 0.0, 7.4
2022/10/28 07:30:00, 0.0, 7.8
2022/10/28 07:40:00, 0.0, 8.8
2022/10/28 07:50:00, 0.1, 9.6
2022/10/28 08:00:00, 0.1,10.1
2022/10/28 08:10:00, 0.1,10.6
2022/10/28 08:20:00, 0.0,12.0
2022/10/28 08:30:00, 0.0,12.1
2022/10/28 08:40:00, 0.0,12.6
2022/10/28 08:50:00, 0.0,13.3
2022/10/28 09:00:00, 0.0,20.8
2022/10/28 09:10:00, 0.0,22.3
2022/10/28 09:20:00, 0.0,23.0
2022/10/28 09:30:00, 0.0,25.8
2022/10/28 09:40:00, 0.0,27.6
2022/10/28 09:50:00, 0.0,27.5
2022/10/28 10:00:00, 0.0,27.1
2022/10/28 10:10:00, 0.0,26.3
2022/10/28 10:20:00, 0.0,26.1
2022/10/28 10:30:00, 0.0,26.3
2022/10/28 10:40:00, 0.0,25.9
2022/10/28 10:50:00, 0.0,25.1
2022/10/28 11:00:00, 0.0,24.0
2022/10/28 11:10:00, 0.0,23.1
2022/10/28 11:20:00, 0.0,22.2
2022/10/28 11:30:00, 0.0,21.6
2022/10/28 11:40:00, 0.0,20.8
2022/10/28 11:50:00, 0.0,21.1
2022/10/28 12:00:00, 0.0,21.3
2022/10/28 12:10:00, 0.0,21.9
2022/10/28 12:20:00, 0.0,22.8
2022/10/28 12:30:00, 0.0,21.8
2022/10/28 12:40:00, 0.0,22.3
2022/10/28 12:50:00, 0.0,22.4
2022/10/28 13:00:00, 0.0,22.3
2022/10/28 13:10:00, 0.0,20.8
2022/10/28 13:20:00, 0.0,20.2
2022/10/28 13:30:00, 0.0,19.9
2022/10/28 13:40:00, 0.0,19.8
2022/10/28 13:50:00, 0.0,19.1
2022/10/28 14:00:00, 0.0,17.6
2022/10/28 14:10:00, 0.0,18.2
2022/10/28 14:20:00, 0.0,18.2
2022/10/28 14:30:00, 0.0,18.1
2022/10/28 14:40:00, 0.0,17.0
2022/10/28 14:50:00, 0.0,17.4
2022/10/28 15:00:00, 0.0,17.4
2022/10/28 15:10:00, 0.0,17.1
2022/10/28 15:20:00, 0.0,16.8
2022/10/28 15:30:00, 0.0,16.2
2022/10/28 15:40:00, 0.0,15.9
2022/10/28 15:50:00, 0.0,15.2
2022/10/28 16:00:00, 0.0,15.3
2022/10/28 16:10:00, 0.0,15.2
2022/10/28 16:20:00, 0.0,14.8
2022/10/28 16:30:00, 0.0,13.9
2022/10/28 16:40:00, 0.0,13.2
2022/10/28 16:50:00, 0.0,13.2
2022/10/28 17:00:00, 0.0,13.1
2022/10/28 17:10:00, 0.0,12.4
2022/10/28 17:20:00, 0.0,12.8
2022/10/28 17:30:00, 0.0,12.8
2022/10/28 17:40:00, 0.0,12.5
2022/10/28 17:50:00, 0.0,12.4
2022/10/28 18:00:00, 0.0,12.2
2022/10/28 18:10:00, 0.0,12.8
2022/10/28 18:20:00, 0.0,12.4
2022/10/28 18:30:00, 0.0,12.1
2022/10/28 18:40:00, 0.0,12.4
2022/10/28 18:50:00, 0.0,11.9
2022/10/28 19:00:00, 0.0,12.0
2022/10/28 19:10:00, 0.0,12.2
2022/10/28 19:20:00, 0.0,12.0
2022/10/28 19:30:00, 0.0,11.7
2022/10/28 19:40:00, 0.0,12.7
2022/10/28 19:50:00, 0.0,12.2
2022/10/28 20:00:00, 0.0,11.4
2022/10/28 20:10:00, 0.0,12.1
2022/10/28 20:20:00, 0.0,12.0
2022/10/28 20:30:00, 0.0,12.1
2022/10/28 20:40:00, 0.0,12.0
2022/10/28 20:50:00, 0.0,12.0
2022/10/28 21:00:00, 0.0,12.0
2022/10/28 21:10:00, 0.0,12.2
2022/10/28 21:20:00, 0.0,12.2
2022/10/28 21:30:00, 0.0,11.9
2022/10/28 21:40:00, 0.0,11.8
2022/10/28 21:50:00, 0.0,11.8
2022/10/28 22:00:00, 0.0,12.0
2022/10/28 22:10:00, 0.0,11.4
2022/10/28 22:20:00, 0.0,11.5
2022/10/28 22:30:00, 0.0,11.4
2022/10/28 22:40:00, 0.0,10.9
2022/10/28 22:50:00, 0.0,11.1
2022/10/28 23:00:00, 0.0,10.9
2022/10/28 23:10:00, 0.0,10.9
2022/10/28 23:20:00, 0.0,10.8
2022/10/28 23:30:00, 0.0,10.6
2022/10/28 23:40:00, 0.0,10.7
2022/10/28 23:50:00, 0.0,10.5
